Torna al catalogo

SSS-1

AttivoScienzaPO
NORAD 49321·PAYLOAD·🇨🇳 China
Questo nome del satellite non è ancora stato confermato da fonti ufficiali.

Lanciato Oct 14, 2021 da Taiyuan Satellite Launch Center

Loading…

Prossimi Passaggi (prossime 24 ore)

TLE

AggiornatoSource: Space-Track

Epoca: Sep 14, 2026, 15:33 UTC

1 49321U 21091G   26257.64796580  .00141804  97396-5  39300-3 0  9994
2 49321  97.3414 128.4034 0001964 142.8434 217.2978 15.93853960275781

Traccia SSS-1 in tempo reale con AllMySat

Download on the App Store